EN

Hourly Weather Dziuchy

Today, 28 October, Wednesday

Time Temperature Precipitation Wind Pressure Humidity
00:00 +9°C° 0 mm 2 mps 746 mmHg 87%
01:00 +8°C° 0 mm 3 mps 747 mmHg 88%
02:00 +8°C° 0 mm 3 mps 746 mmHg 89%
03:00 +7°C° 0 mm 2 mps 746 mmHg 91%
04:00 +7°C° 0 mm 2 mps 746 mmHg 92%
05:00 +7°C° 0 mm 3 mps 746 mmHg 92%
06:00 +7°C° 0 mm 3 mps 746 mmHg 92%
07:00 +7°C° 0 mm 3 mps 747 mmHg 91%
08:00 +8°C° 0 mm 3 mps 747 mmHg 84%
09:00 +8°C° 0 mm 4 mps 747 mmHg 77%
10:00 +11°C° 0 mm 4 mps 747 mmHg 70%
11:00 +11°C° 0 mm 4 mps 747 mmHg 66%
12:00 +12°C° 0 mm 5 mps 746 mmHg 62%
13:00 +13°C° 0 mm 5 mps 746 mmHg 58%
14:00 +12°C° 0 mm 4 mps 746 mmHg 63%
15:00 +11°C° 0 mm 3 mps 746 mmHg 69%
16:00 +10°C° 0 mm 3 mps 746 mmHg 74%
17:00 +10°C° 0 mm 3 mps 746 mmHg 75%
18:00 +10°C° 0 mm 3 mps 746 mmHg 77%
19:00 +10°C° 0 mm 3 mps 746 mmHg 79%
20:00 +10°C° 0 mm 3 mps 746 mmHg 78%
21:00 +10°C° 0 mm 2 mps 746 mmHg 77%
22:00 +9°C° 0 mm 2 mps 746 mmHg 77%
23:00 +9°C° 0.1 mm 3 mps 746 mmHg 79%

Tomorrow, 29 October, Thursday

Time Temperature Precipitation Wind Pressure Humidity
00:00 +9°C° 0.1 mm 3 mps 746 mmHg 82%
01:00 +9°C° 0.1 mm 3 mps 746 mmHg 85%
02:00 +9°C° 0 mm 3 mps 746 mmHg 87%
03:00 +8°C° 0 mm 2 mps 745 mmHg 90%
04:00 +7°C° 0 mm 2 mps 745 mmHg 93%
05:00 +8°C° 0 mm 3 mps 745 mmHg 93%
06:00 +8°C° 0 mm 3 mps 745 mmHg 92%
07:00 +8°C° 0 mm 3 mps 745 mmHg 92%
08:00 +9°C° 0 mm 3 mps 745 mmHg 88%
09:00 +9°C° 0 mm 3 mps 745 mmHg 83%
10:00 +10°C° 0 mm 4 mps 745 mmHg 79%
11:00 +11°C° 0 mm 4 mps 745 mmHg 74%
12:00 +12°C° 0 mm 4 mps 745 mmHg 70%
13:00 +13°C° 0 mm 4 mps 744 mmHg 66%
14:00 +12°C° 0 mm 4 mps 745 mmHg 70%
15:00 +11°C° 0 mm 3 mps 745 mmHg 73%
16:00 +12°C° 0 mm 2 mps 745 mmHg 77%
17:00 +10°C° 0.4 mm 3 mps 745 mmHg 81%
18:00 +10°C° 0.4 mm 3 mps 745 mmHg 85%
19:00 +9°C° 0.4 mm 3 mps 745 mmHg 89%
20:00 +9°C° 0.4 mm 3 mps 745 mmHg 88%
21:00 +8°C° 0.4 mm 4 mps 745 mmHg 87%
22:00 +7°C° 0.4 mm 4 mps 746 mmHg 86%
23:00 +7°C° 0.1 mm 4 mps 746 mmHg 87%

Day after tomorrow, 30 October, Friday

Time Temperature Precipitation Wind Pressure Humidity
00:00 +7°C° 0.1 mm 4 mps 746 mmHg 87%
01:00 +7°C° 0.1 mm 4 mps 746 mmHg 88%
02:00 +7°C° 0.1 mm 5 mps 747 mmHg 87%
03:00 +7°C° 0.1 mm 5 mps 747 mmHg 86%
04:00 +7°C° 0.1 mm 5 mps 747 mmHg 85%
05:00 +7°C° 0 mm 5 mps 747 mmHg 85%
06:00 +7°C° 0 mm 5 mps 748 mmHg 85%
07:00 +7°C° 0 mm 4 mps 748 mmHg 85%
08:00 +7°C° 0 mm 4 mps 748 mmHg 83%
09:00 +7°C° 0 mm 4 mps 748 mmHg 81%
10:00 +8°C° 0 mm 5 mps 749 mmHg 79%
11:00 +8°C° 0 mm 4 mps 749 mmHg 78%
12:00 +8°C° 0 mm 4 mps 748 mmHg 76%
13:00 +10°C° 0 mm 3 mps 748 mmHg 74%
14:00 +9°C° 0 mm 3 mps 748 mmHg 76%
15:00 +9°C° 0 mm 3 mps 748 mmHg 77%
16:00 +8°C° 0 mm 2 mps 748 mmHg 79%
17:00 +8°C° 0 mm 2 mps 748 mmHg 81%
18:00 +9°C° 0 mm 1 mps 748 mmHg 83%
19:00 +8°C° 0 mm 1 mps 748 mmHg 85%
20:00 +8°C° 0 mm 1 mps 748 mmHg 87%
21:00 +7°C° 0 mm 1 mps 748 mmHg 89%
22:00 +6°C° 0 mm 0 mps 748 mmHg 90%
23:00 +6°C° 0 mm 1 mps 749 mmHg 91%

31 October, Saturday

Time Temperature Precipitation Wind Pressure Humidity
00:00 +6°C° 0 mm 1 mps 749 mmHg 91%
01:00 +6°C° 0 mm 1 mps 750 mmHg 91%
02:00 +6°C° 0 mm 1 mps 750 mmHg 92%
03:00 +5°C° 0 mm 2 mps 751 mmHg 93%
04:00 +4°C° 0 mm 2 mps 752 mmHg 93%
05:00 +5°C° 0 mm 2 mps 752 mmHg 94%
06:00 +5°C° 0 mm 2 mps 752 mmHg 95%
07:00 +5°C° 0 mm 2 mps 753 mmHg 96%
08:00 +6°C° 0 mm 2 mps 753 mmHg 91%
09:00 +8°C° 0 mm 2 mps 754 mmHg 87%
10:00 +9°C° 0 mm 2 mps 754 mmHg 82%
11:00 +10°C° 0 mm 2 mps 754 mmHg 78%
12:00 +10°C° 0 mm 2 mps 754 mmHg 75%
13:00 +12°C° 0 mm 2 mps 755 mmHg 71%
14:00 +10°C° 0 mm 2 mps 755 mmHg 76%
15:00 +10°C° 0 mm 1 mps 755 mmHg 81%
16:00 +9°C° 0 mm 1 mps 755 mmHg 85%
17:00 +9°C° 0 mm 1 mps 755 mmHg 87%
18:00 +8°C° 0 mm 1 mps 755 mmHg 89%
19:00 +7°C° 0 mm 0 mps 756 mmHg 91%
20:00 +7°C° 0 mm 1 mps 756 mmHg 92%
21:00 +7°C° 0 mm 1 mps 756 mmHg 94%
22:00 +7°C° 0 mm 1 mps 756 mmHg 95%
23:00 +6°C° 0 mm 1 mps 756 mmHg 95%

1 November, Sunday

Time Temperature Precipitation Wind Pressure Humidity
00:00 +6°C° 0 mm 1 mps 756 mmHg 95%
01:00 +6°C° 0 mm 1 mps 756 mmHg 95%
02:00 +5°C° 0 mm 2 mps 756 mmHg 95%
03:00 +5°C° 0 mm 2 mps 756 mmHg 95%
04:00 +5°C° 0 mm 2 mps 756 mmHg 95%
05:00 +4°C° 0 mm 2 mps 756 mmHg 95%
06:00 +4°C° 0 mm 2 mps 756 mmHg 95%
07:00 +4°C° 0 mm 2 mps 756 mmHg 95%
08:00 +4°C° 0 mm 3 mps 756 mmHg 90%
09:00 +7°C° 0 mm 3 mps 755 mmHg 85%
10:00 +8°C° 0 mm 3 mps 755 mmHg 79%
11:00 +8°C° 0 mm 4 mps 755 mmHg 75%
12:00 +10°C° 0 mm 4 mps 755 mmHg 71%
13:00 +10°C° 0 mm 4 mps 755 mmHg 67%
14:00 +8°C° 0 mm 4 mps 754 mmHg 71%
15:00 +8°C° 0 mm 4 mps 754 mmHg 75%
16:00 +8°C° 0 mm 3 mps 753 mmHg 79%
17:00 +7°C° 0 mm 4 mps 753 mmHg 80%
18:00 +6°C° 0 mm 4 mps 753 mmHg 82%
19:00 +6°C° 0 mm 5 mps 753 mmHg 83%
20:00 +6°C° 0 mm 5 mps 753 mmHg 84%
21:00 +6°C° 0 mm 5 mps 753 mmHg 85%
22:00 +5°C° 0 mm 5 mps 753 mmHg 86%
23:00 +5°C° 0 mm 5 mps 752 mmHg 86%

2 November, Monday

Time Temperature Precipitation Wind Pressure Humidity
00:00 +5°C° 0 mm 5 mps 752 mmHg 86%
01:00 +5°C° 0 mm 5 mps 752 mmHg 85%
02:00 +5°C° 0 mm 5 mps 752 mmHg 86%
03:00 +5°C° 0 mm 5 mps 752 mmHg 87%
04:00 +3°C° 0 mm 5 mps 752 mmHg 88%
05:00 +3°C° 0 mm 5 mps 752 mmHg 87%
06:00 +3°C° 0 mm 5 mps 752 mmHg 87%
07:00 +3°C° 0 mm 5 mps 752 mmHg 87%
08:00 +5°C° 0 mm 5 mps 752 mmHg 82%
09:00 +6°C° 0 mm 5 mps 752 mmHg 77%
10:00 +7°C° 0 mm 6 mps 752 mmHg 72%
11:00 +8°C° 0 mm 6 mps 752 mmHg 70%
12:00 +9°C° 0 mm 6 mps 752 mmHg 67%
13:00 +10°C° 0 mm 6 mps 752 mmHg 64%
14:00 +9°C° 0 mm 5 mps 752 mmHg 67%
15:00 +8°C° 0 mm 5 mps 752 mmHg 70%
16:00 +8°C° 0 mm 4 mps 751 mmHg 73%
17:00 +7°C° 0 mm 4 mps 752 mmHg 75%
18:00 +7°C° 0 mm 5 mps 752 mmHg 78%
19:00 +7°C° 0 mm 5 mps 752 mmHg 81%
20:00 +7°C° 0 mm 5 mps 752 mmHg 81%
21:00 +6°C° 0 mm 5 mps 752 mmHg 82%
22:00 +6°C° 0 mm 5 mps 752 mmHg 83%
23:00 +6°C° 0 mm 4 mps 752 mmHg 85%
Show more